Year,Month,Day,Hour,Minute,Value (Times are PST for windspeed in km/hr)
2019,03,22,00,00,0.00
2019,03,22,00,01,0.10
2019,03,22,00,02,0.00
2019,03,22,00,03,0.00
2019,03,22,00,04,0.00
2019,03,22,00,05,0.00
2019,03,22,00,06,0.00
2019,03,22,00,07,0.00
2019,03,22,00,08,0.00
2019,03,22,00,09,0.00
2019,03,22,00,10,6.60
2019,03,22,00,11,0.10
2019,03,22,00,12,1.50
2019,03,22,00,13,7.20
2019,03,22,00,14,2.50
2019,03,22,00,15,0.10
2019,03,22,00,16,2.90
2019,03,22,00,17,8.80
2019,03,22,00,18,0.20
2019,03,22,00,19,0.60
2019,03,22,00,20,0.20
2019,03,22,00,21,0.30
2019,03,22,00,22,8.40
2019,03,22,00,23,0.00
2019,03,22,00,24,0.00
2019,03,22,00,25,0.00
2019,03,22,00,26,0.00
2019,03,22,00,27,0.00
2019,03,22,00,28,0.00
2019,03,22,00,29,0.00
2019,03,22,00,30,0.00
2019,03,22,00,31,0.00
2019,03,22,00,32,0.10
2019,03,22,00,33,0.00
2019,03,22,00,34,0.00
2019,03,22,00,35,0.00
2019,03,22,00,36,0.00
2019,03,22,00,37,0.00
2019,03,22,00,38,0.00
2019,03,22,00,39,0.00
2019,03,22,00,40,0.00
2019,03,22,00,41,0.00
2019,03,22,00,42,0.00
2019,03,22,00,43,0.00
2019,03,22,00,44,0.00
2019,03,22,00,45,0.00
2019,03,22,00,46,0.00
2019,03,22,00,47,0.00
2019,03,22,00,48,0.00
2019,03,22,00,49,0.00
2019,03,22,00,50,0.00
2019,03,22,00,51,0.00
2019,03,22,00,52,9.30
2019,03,22,00,53,14.20
2019,03,22,00,54,6.30
2019,03,22,00,55,17.50
2019,03,22,00,56,14.10
2019,03,22,00,57,12.40
2019,03,22,00,58,6.30
2019,03,22,00,59,17.00
2019,03,22,01,00,18.00
2019,03,22,01,01,21.70
2019,03,22,01,02,11.10
2019,03,22,01,03,12.00
2019,03,22,01,04,16.50
2019,03,22,01,05,13.90
2019,03,22,01,06,13.70
2019,03,22,01,07,6.40
2019,03,22,01,08,13.60
2019,03,22,01,09,12.40
2019,03,22,01,10,16.20
2019,03,22,01,11,17.90
2019,03,22,01,12,16.00
2019,03,22,01,13,9.10
2019,03,22,01,14,21.10
2019,03,22,01,15,19.50
2019,03,22,01,16,18.00
2019,03,22,01,17,15.00
2019,03,22,01,18,15.30
2019,03,22,01,19,7.00
2019,03,22,01,20,10.50
2019,03,22,01,21,6.50
2019,03,22,01,22,16.20
2019,03,22,01,23,19.00
2019,03,22,01,24,15.60
2019,03,22,01,25,16.60
2019,03,22,01,26,24.60
2019,03,22,01,27,17.40
2019,03,22,01,28,20.00
2019,03,22,01,29,19.40
2019,03,22,01,30,27.10
2019,03,22,01,31,13.60
2019,03,22,01,32,17.00
2019,03,22,01,33,23.70
2019,03,22,01,34,15.70
2019,03,22,01,35,1.90
2019,03,22,01,36,8.00
2019,03,22,01,37,16.00
2019,03,22,01,38,13.90
2019,03,22,01,39,18.50
2019,03,22,01,40,8.30
2019,03,22,01,41,10.00
2019,03,22,01,42,20.30
2019,03,22,01,43,12.70
2019,03,22,01,44,22.50
2019,03,22,01,45,23.00
2019,03,22,01,46,22.80
2019,03,22,01,47,23.00
2019,03,22,01,48,14.20
2019,03,22,01,49,20.70
2019,03,22,01,50,22.10
2019,03,22,01,51,18.50
2019,03,22,01,52,17.60
2019,03,22,01,53,14.20
2019,03,22,01,54,22.20
2019,03,22,01,55,26.80
2019,03,22,01,56,21.00
2019,03,22,01,57,13.00
2019,03,22,01,58,22.30
2019,03,22,01,59,23.00
2019,03,22,02,00,8.00
2019,03,22,02,01,12.40
2019,03,22,02,02,16.60
2019,03,22,02,03,19.30
2019,03,22,02,04,16.30
2019,03,22,02,05,14.10
2019,03,22,02,06,19.90
2019,03,22,02,07,9.70
2019,03,22,02,08,2.30
2019,03,22,02,09,16.70
2019,03,22,02,10,6.50
2019,03,22,02,11,9.70
2019,03,22,02,12,16.00
2019,03,22,02,13,13.50
2019,03,22,02,14,7.40
2019,03,22,02,15,5.70
2019,03,22,02,16,15.20
2019,03,22,02,17,8.30
2019,03,22,02,18,3.80
2019,03,22,02,19,0.80
2019,03,22,02,20,0.00
2019,03,22,02,21,5.20
2019,03,22,02,22,1.00
2019,03,22,02,23,9.40
2019,03,22,02,24,5.60
2019,03,22,02,25,4.30
2019,03,22,02,26,3.20
2019,03,22,02,27,0.10
2019,03,22,02,28,6.20
2019,03,22,02,29,15.20
2019,03,22,02,30,19.70
2019,03,22,02,31,18.60
2019,03,22,02,32,6.10
2019,03,22,02,33,13.00
2019,03,22,02,34,2.20
2019,03,22,02,35,7.00
2019,03,22,02,36,2.10
2019,03,22,02,37,5.90
2019,03,22,02,38,7.20
2019,03,22,02,39,3.90
2019,03,22,02,40,3.50
2019,03,22,02,41,19.50
2019,03,22,02,42,7.80
2019,03,22,02,43,0.20
2019,03,22,02,44,0.70
2019,03,22,02,45,3.90
2019,03,22,02,46,36.00
2019,03,22,02,47,9.50
2019,03,22,02,48,1.10
2019,03,22,02,49,0.50
2019,03,22,02,50,2.50
2019,03,22,02,51,1.00
2019,03,22,02,52,4.00
2019,03,22,02,53,7.30
2019,03,22,02,54,0.00
2019,03,22,02,55,0.10
2019,03,22,02,56,14.10
2019,03,22,02,57,9.30
2019,03,22,02,58,3.40
2019,03,22,02,59,5.50
2019,03,22,03,00,0.10
2019,03,22,03,01,0.00
2019,03,22,03,02,0.00
2019,03,22,03,03,0.00
2019,03,22,03,04,0.00
2019,03,22,03,05,0.10
2019,03,22,03,06,0.00
2019,03,22,03,07,0.00
2019,03,22,03,08,0.20
2019,03,22,03,09,2.80
2019,03,22,03,10,12.50
2019,03,22,03,11,11.20
2019,03,22,03,12,7.80
2019,03,22,03,13,1.00
2019,03,22,03,14,0.00
2019,03,22,03,15,2.00
2019,03,22,03,16,0.60
2019,03,22,03,17,6.40
2019,03,22,03,18,11.60
2019,03,22,03,19,12.20
2019,03,22,03,20,12.80
2019,03,22,03,21,0.50
2019,03,22,03,22,0.00
2019,03,22,03,23,0.00
2019,03,22,03,24,0.00
2019,03,22,03,25,0.00
2019,03,22,03,26,0.00
2019,03,22,03,27,0.00
2019,03,22,03,28,5.90
2019,03,22,03,29,3.80
2019,03,22,03,30,0.00
2019,03,22,03,31,0.20
2019,03,22,03,32,0.10
2019,03,22,03,33,0.00
2019,03,22,03,34,0.00
2019,03,22,03,35,0.00
2019,03,22,03,36,0.00
2019,03,22,03,37,0.00
2019,03,22,03,38,0.00
2019,03,22,03,39,3.00
2019,03,22,03,40,0.60
2019,03,22,03,41,1.60
2019,03,22,03,42,0.10
2019,03,22,03,43,0.00
2019,03,22,03,44,8.60
2019,03,22,03,45,9.90
2019,03,22,03,46,6.80
2019,03,22,03,47,14.60
2019,03,22,03,48,15.00
2019,03,22,03,49,14.30
2019,03,22,03,50,14.90
2019,03,22,03,51,18.60
2019,03,22,03,52,17.20
2019,03,22,03,53,17.60
2019,03,22,03,54,15.40
2019,03,22,03,55,26.80
2019,03,22,03,56,23.90
2019,03,22,03,57,28.10
2019,03,22,03,58,26.20
2019,03,22,03,59,27.20
2019,03,22,04,00,14.60
2019,03,22,04,01,24.80
2019,03,22,04,02,23.00
2019,03,22,04,03,24.10
2019,03,22,04,04,17.20
2019,03,22,04,05,19.40
2019,03,22,04,06,24.90
2019,03,22,04,07,22.90
2019,03,22,04,08,24.30
2019,03,22,04,09,24.70
2019,03,22,04,10,24.10
2019,03,22,04,11,13.00
2019,03,22,04,12,18.90
2019,03,22,04,13,14.20
2019,03,22,04,14,13.80
2019,03,22,04,15,17.80
2019,03,22,04,16,13.30
2019,03,22,04,17,11.60
2019,03,22,04,18,15.30
2019,03,22,04,19,12.20
2019,03,22,04,20,10.90
2019,03,22,04,21,23.10
2019,03,22,04,22,25.50
2019,03,22,04,23,11.80
2019,03,22,04,24,19.00
2019,03,22,04,25,11.40
2019,03,22,04,26,15.90
2019,03,22,04,27,20.00
2019,03,22,04,28,17.70
2019,03,22,04,29,23.80
2019,03,22,04,30,13.80
2019,03,22,04,31,18.80
2019,03,22,04,32,14.50
2019,03,22,04,33,20.40
2019,03,22,04,34,24.40
2019,03,22,04,35,14.20
2019,03,22,04,36,9.40
2019,03,22,04,37,16.20
2019,03,22,04,38,25.30
2019,03,22,04,39,15.20
2019,03,22,04,40,25.50
2019,03,22,04,41,16.20
2019,03,22,04,42,19.30
2019,03,22,04,43,16.90
2019,03,22,04,44,7.20
2019,03,22,04,45,10.40
2019,03,22,04,46,12.40
2019,03,22,04,47,15.50
2019,03,22,04,48,15.00
2019,03,22,04,49,11.00
2019,03,22,04,50,11.80
2019,03,22,04,51,2.20
2019,03,22,04,52,14.00
2019,03,22,04,53,5.80
2019,03,22,04,54,5.60
2019,03,22,04,55,0.20
2019,03,22,04,56,11.10
2019,03,22,04,57,8.60
2019,03,22,04,58,13.40
2019,03,22,04,59,14.10
2019,03,22,05,00,17.80
2019,03,22,05,01,13.50
2019,03,22,05,02,11.10
2019,03,22,05,03,15.20
2019,03,22,05,04,9.00
2019,03,22,05,05,7.70
2019,03,22,05,06,1.50
2019,03,22,05,07,11.20
2019,03,22,05,08,6.80
2019,03,22,05,09,5.40
2019,03,22,05,10,7.10
2019,03,22,05,11,0.60
2019,03,22,05,12,2.50
2019,03,22,05,13,1.90
2019,03,22,05,14,7.90
2019,03,22,05,15,6.30
2019,03,22,05,16,3.80
2019,03,22,05,17,6.90
2019,03,22,05,18,0.10
2019,03,22,05,19,0.90
2019,03,22,05,20,1.10
2019,03,22,05,21,0.00
2019,03,22,05,22,0.00
2019,03,22,05,23,0.00
2019,03,22,05,24,0.00
2019,03,22,05,25,0.00
2019,03,22,05,26,0.00
2019,03,22,05,27,0.00
2019,03,22,05,28,0.00
2019,03,22,05,29,0.00
2019,03,22,05,30,0.00
2019,03,22,05,31,0.00
2019,03,22,05,32,0.00
2019,03,22,05,33,0.10
2019,03,22,05,34,1.00
2019,03,22,05,35,2.40
2019,03,22,05,36,0.00
2019,03,22,05,37,0.00
2019,03,22,05,38,0.00
2019,03,22,05,39,0.00
2019,03,22,05,40,0.00
2019,03,22,05,41,0.90
2019,03,22,05,42,2.00
2019,03,22,05,43,3.40
2019,03,22,05,44,0.00
2019,03,22,05,45,0.00
2019,03,22,05,46,0.00
2019,03,22,05,47,0.00
2019,03,22,05,48,0.00
2019,03,22,05,49,0.00
2019,03,22,05,50,0.00
2019,03,22,05,51,0.00
2019,03,22,05,52,0.00
2019,03,22,05,53,0.10
2019,03,22,05,54,0.00
2019,03,22,05,55,0.00
2019,03,22,05,56,0.00
2019,03,22,05,57,0.00
2019,03,22,05,58,0.00
2019,03,22,05,59,0.30
2019,03,22,06,00,5.00
2019,03,22,06,01,0.60
2019,03,22,06,02,0.00
2019,03,22,06,03,2.10
2019,03,22,06,04,1.70
2019,03,22,06,05,0.00
2019,03,22,06,06,0.00
2019,03,22,06,07,0.00
2019,03,22,06,08,0.00
2019,03,22,06,09,0.00
2019,03,22,06,10,0.00
2019,03,22,06,11,0.00
2019,03,22,06,12,0.00
2019,03,22,06,13,0.00
2019,03,22,06,14,0.00
2019,03,22,06,15,0.00
2019,03,22,06,16,0.00
2019,03,22,06,17,0.00
2019,03,22,06,18,0.00
2019,03,22,06,19,0.00
2019,03,22,06,20,0.00
2019,03,22,06,21,0.00
2019,03,22,06,22,0.00
2019,03,22,06,23,0.00
2019,03,22,06,24,0.00
2019,03,22,06,25,0.00
2019,03,22,06,26,0.00
2019,03,22,06,27,0.00
2019,03,22,06,28,0.00
2019,03,22,06,29,0.00
2019,03,22,06,30,0.00
2019,03,22,06,31,0.00
2019,03,22,06,32,0.00
2019,03,22,06,33,0.00
2019,03,22,06,34,0.00
2019,03,22,06,35,0.00
2019,03,22,06,36,0.00
2019,03,22,06,37,0.00
2019,03,22,06,38,0.00
2019,03,22,06,39,0.00
2019,03,22,06,40,0.00
2019,03,22,06,41,0.00
2019,03,22,06,42,0.00
2019,03,22,06,43,0.00
2019,03,22,06,44,0.00
2019,03,22,06,45,0.00
2019,03,22,06,46,0.00
2019,03,22,06,47,0.00
2019,03,22,06,48,0.00
2019,03,22,06,49,0.00
2019,03,22,06,50,0.00
2019,03,22,06,51,0.00
2019,03,22,06,52,0.00
2019,03,22,06,53,0.00
2019,03,22,06,54,0.00
2019,03,22,06,55,0.00
2019,03,22,06,56,0.00
2019,03,22,06,57,0.00
2019,03,22,06,58,0.00
2019,03,22,06,59,0.00
2019,03,22,07,00,0.10
2019,03,22,07,01,0.00
2019,03,22,07,02,0.00
2019,03,22,07,03,0.00
2019,03,22,07,04,0.00
2019,03,22,07,05,0.00
2019,03,22,07,06,0.10
2019,03,22,07,07,0.00
2019,03,22,07,08,0.00
2019,03,22,07,09,0.80
2019,03,22,07,10,4.20
2019,03,22,07,11,0.10
2019,03,22,07,12,0.60
2019,03,22,07,13,3.20
2019,03,22,07,14,0.00
2019,03,22,07,15,0.10
2019,03,22,07,16,0.10
2019,03,22,07,17,0.00
2019,03,22,07,18,0.00
2019,03,22,07,19,0.00
2019,03,22,07,20,0.00
2019,03,22,07,21,0.00
2019,03,22,07,22,0.10
2019,03,22,07,23,0.00
2019,03,22,07,24,0.00
2019,03,22,07,25,0.00
2019,03,22,07,26,0.00
2019,03,22,07,27,0.00
2019,03,22,07,28,0.00
2019,03,22,07,29,0.00
2019,03,22,07,30,0.00
2019,03,22,07,31,0.00
2019,03,22,07,32,0.00
2019,03,22,07,33,0.00
2019,03,22,07,34,0.10
2019,03,22,07,35,0.00
2019,03,22,07,36,0.00
2019,03,22,07,37,0.00
2019,03,22,07,38,0.00
2019,03,22,07,39,0.00
2019,03,22,07,40,0.00
2019,03,22,07,41,0.00
2019,03,22,07,42,0.00
2019,03,22,07,43,0.00
2019,03,22,07,44,0.00
2019,03,22,07,45,0.00
2019,03,22,07,46,0.00
2019,03,22,07,47,0.00
2019,03,22,07,48,0.00
2019,03,22,07,49,0.00
2019,03,22,07,50,0.00
2019,03,22,07,51,0.00
2019,03,22,07,52,0.00
2019,03,22,07,53,0.00
2019,03,22,07,54,0.00
2019,03,22,07,55,0.00
2019,03,22,07,56,0.00
2019,03,22,07,57,0.00
2019,03,22,07,58,0.00
2019,03,22,07,59,0.00
2019,03,22,08,00,0.00
2019,03,22,08,01,0.00
2019,03,22,08,02,0.00
2019,03,22,08,03,0.00
2019,03,22,08,04,0.00
2019,03,22,08,05,0.00
2019,03,22,08,06,0.00
2019,03,22,08,07,0.00
2019,03,22,08,08,0.00
2019,03,22,08,09,0.00
2019,03,22,08,10,0.00
2019,03,22,08,11,0.00
2019,03,22,08,12,0.00
2019,03,22,08,13,0.00
2019,03,22,08,14,0.00
2019,03,22,08,15,0.00
2019,03,22,08,16,0.00
2019,03,22,08,17,0.00
2019,03,22,08,18,0.00
2019,03,22,08,19,4.50
2019,03,22,08,20,7.20
2019,03,22,08,21,0.00
2019,03,22,08,22,0.00
2019,03,22,08,23,0.00
2019,03,22,08,24,4.80
2019,03,22,08,25,0.30
2019,03,22,08,26,0.80
2019,03,22,08,27,1.80
2019,03,22,08,28,0.00
2019,03,22,08,29,0.00
2019,03,22,08,30,0.00
2019,03,22,08,31,0.00
2019,03,22,08,32,3.90
2019,03,22,08,33,0.00
2019,03,22,08,34,6.20
2019,03,22,08,35,3.20
2019,03,22,08,36,8.00
2019,03,22,08,37,8.30
2019,03,22,08,38,12.50
2019,03,22,08,39,12.00
2019,03,22,08,40,9.70
2019,03,22,08,41,3.60
2019,03,22,08,42,9.50
2019,03,22,08,43,3.60
2019,03,22,08,44,7.20
2019,03,22,08,45,8.20
2019,03,22,08,46,9.90
2019,03,22,08,47,12.00
2019,03,22,08,48,8.30
2019,03,22,08,49,0.00
2019,03,22,08,50,2.10
2019,03,22,08,51,0.40
2019,03,22,08,52,0.10
2019,03,22,08,53,0.00
2019,03,22,08,54,0.00
2019,03,22,08,55,0.30
2019,03,22,08,56,9.30
2019,03,22,08,57,10.20
2019,03,22,08,58,7.80
2019,03,22,08,59,9.10
2019,03,22,09,00,1.20
2019,03,22,09,01,0.00
2019,03,22,09,02,0.00
2019,03,22,09,03,0.10
2019,03,22,09,04,0.10
2019,03,22,09,05,0.10
2019,03,22,09,06,0.00
2019,03,22,09,07,0.20
2019,03,22,09,08,0.00
2019,03,22,09,09,0.30
2019,03,22,09,10,0.00
2019,03,22,09,11,2.80
2019,03,22,09,12,0.00
2019,03,22,09,13,0.10
2019,03,22,09,14,7.60
2019,03,22,09,15,0.30
2019,03,22,09,16,3.90
2019,03,22,09,17,1.40
2019,03,22,09,18,0.10
2019,03,22,09,19,0.10
2019,03,22,09,20,0.00
2019,03,22,09,21,2.10
2019,03,22,09,22,7.90
2019,03,22,09,23,6.20
2019,03,22,09,24,6.60
2019,03,22,09,25,8.70
2019,03,22,09,26,7.70
2019,03,22,09,27,4.20
2019,03,22,09,28,11.70
2019,03,22,09,29,6.40
2019,03,22,09,30,8.20
2019,03,22,09,31,16.10
2019,03,22,09,32,14.30
2019,03,22,09,33,12.30
2019,03,22,09,34,15.50
2019,03,22,09,35,15.30
2019,03,22,09,36,1.90
2019,03,22,09,37,5.40
2019,03,22,09,38,5.80
2019,03,22,09,39,8.20
2019,03,22,09,40,14.10
2019,03,22,09,41,11.70
2019,03,22,09,42,5.30
2019,03,22,09,43,0.00
2019,03,22,09,44,0.00
2019,03,22,09,45,0.00
2019,03,22,09,46,0.00
2019,03,22,09,47,1.70
2019,03,22,09,48,4.00
2019,03,22,09,49,1.90
2019,03,22,09,50,2.90
2019,03,22,09,51,0.00
2019,03,22,09,52,1.80
2019,03,22,09,53,5.50
2019,03,22,09,54,7.40
2019,03,22,09,55,0.10
2019,03,22,09,56,0.00
2019,03,22,09,57,0.10
2019,03,22,09,58,0.10
2019,03,22,09,59,0.00
2019,03,22,10,00,0.10
2019,03,22,10,01,1.50
2019,03,22,10,02,7.30
2019,03,22,10,03,6.90
2019,03,22,10,04,0.40
2019,03,22,10,05,0.00
2019,03,22,10,06,0.30
2019,03,22,10,07,8.50
2019,03,22,10,08,2.00
2019,03,22,10,09,0.00
2019,03,22,10,10,0.00
2019,03,22,10,11,5.90
2019,03,22,10,12,8.60
2019,03,22,10,13,11.90
2019,03,22,10,14,11.30
2019,03,22,10,15,4.90
2019,03,22,10,16,10.50
2019,03,22,10,17,12.20
2019,03,22,10,18,20.50
2019,03,22,10,19,16.00
2019,03,22,10,20,15.10
2019,03,22,10,21,20.90
2019,03,22,10,22,16.40
2019,03,22,10,23,15.90
2019,03,22,10,24,20.00
2019,03,22,10,25,14.10
2019,03,22,10,26,15.30
2019,03,22,10,27,7.60
2019,03,22,10,28,10.70
2019,03,22,10,29,10.10
2019,03,22,10,30,11.20
2019,03,22,10,31,12.90
2019,03,22,10,32,9.40
2019,03,22,10,33,14.40
2019,03,22,10,34,8.70
2019,03,22,10,35,10.50
2019,03,22,10,36,8.20
2019,03,22,10,37,14.50
2019,03,22,10,38,7.10
2019,03,22,10,39,4.80
2019,03,22,10,40,6.50
2019,03,22,10,41,1.50
2019,03,22,10,42,6.70
2019,03,22,10,43,8.70
2019,03,22,10,44,3.70
2019,03,22,10,45,5.70
2019,03,22,10,46,3.20
2019,03,22,10,47,1.50
2019,03,22,10,48,5.30
2019,03,22,10,49,11.30
2019,03,22,10,50,7.30
2019,03,22,10,51,0.10
2019,03,22,10,52,2.50
2019,03,22,10,53,0.10
2019,03,22,10,54,3.90
2019,03,22,10,55,3.50
2019,03,22,10,56,5.90
2019,03,22,10,57,11.10
2019,03,22,10,58,2.50
2019,03,22,10,59,0.20
2019,03,22,11,00,2.60
2019,03,22,11,01,6.70
2019,03,22,11,02,0.10
2019,03,22,11,03,3.20
2019,03,22,11,04,0.20
2019,03,22,11,05,0.90
2019,03,22,11,06,10.10
2019,03,22,11,07,17.40
2019,03,22,11,08,9.30
2019,03,22,11,09,0.10
2019,03,22,11,10,13.30
2019,03,22,11,11,11.70
2019,03,22,11,12,13.10
2019,03,22,11,13,12.90
2019,03,22,11,14,10.20
2019,03,22,11,15,15.30
2019,03,22,11,16,4.40
2019,03,22,11,17,5.20
2019,03,22,11,18,22.30
2019,03,22,11,19,19.60
2019,03,22,11,20,24.40
2019,03,22,11,21,22.30
2019,03,22,11,22,20.20
2019,03,22,11,23,8.30
2019,03,22,11,24,0.10
2019,03,22,11,25,4.80
2019,03,22,11,26,15.50
2019,03,22,11,27,8.40
2019,03,22,11,28,15.90
2019,03,22,11,29,14.60
2019,03,22,11,30,12.50
2019,03,22,11,31,21.70
2019,03,22,11,32,12.40
2019,03,22,11,33,6.50
2019,03,22,11,34,3.20
2019,03,22,11,35,3.90
2019,03,22,11,36,7.80
2019,03,22,11,37,20.80
2019,03,22,11,38,12.10
2019,03,22,11,39,2.30
2019,03,22,11,40,12.10
2019,03,22,11,41,6.40
2019,03,22,11,42,5.00
2019,03,22,11,43,3.10
2019,03,22,11,44,6.40
2019,03,22,11,45,20.20
2019,03,22,11,46,18.70
2019,03,22,11,47,15.50
2019,03,22,11,48,11.90
2019,03,22,11,49,10.30
2019,03,22,11,50,16.00
2019,03,22,11,51,19.90
2019,03,22,11,52,17.00
2019,03,22,11,53,16.50
2019,03,22,11,54,11.60
2019,03,22,11,55,9.40
2019,03,22,11,56,17.30
2019,03,22,11,57,4.30
2019,03,22,11,58,13.20
2019,03,22,11,59,9.20
2019,03,22,12,00,11.30
2019,03,22,12,01,0.40
2019,03,22,12,02,8.90
2019,03,22,12,03,17.10
2019,03,22,12,04,17.00
2019,03,22,12,05,9.70
2019,03,22,12,06,4.90
2019,03,22,12,07,7.90
2019,03,22,12,08,0.20
2019,03,22,12,09,3.70
2019,03,22,12,10,2.00
2019,03,22,12,11,2.10
2019,03,22,12,12,11.40
2019,03,22,12,13,1.50
2019,03,22,12,14,0.10
2019,03,22,12,15,0.20
2019,03,22,12,16,13.60
2019,03,22,12,17,21.30
2019,03,22,12,18,9.80
2019,03,22,12,19,14.20
2019,03,22,12,20,11.30
2019,03,22,12,21,9.00
2019,03,22,12,22,7.10
2019,03,22,12,23,9.10
2019,03,22,12,24,14.50
2019,03,22,12,25,9.00
2019,03,22,12,26,7.90
2019,03,22,12,27,4.80
2019,03,22,12,28,4.40
2019,03,22,12,29,1.30
2019,03,22,12,30,2.00
2019,03,22,12,31,6.70
2019,03,22,12,32,0.20
2019,03,22,12,33,0.60
2019,03,22,12,34,4.70
2019,03,22,12,35,0.70
2019,03,22,12,36,0.10
2019,03,22,12,37,0.60
2019,03,22,12,38,20.40
2019,03,22,12,39,6.20
2019,03,22,12,40,1.70
2019,03,22,12,41,18.80
2019,03,22,12,42,6.80
2019,03,22,12,43,19.10
2019,03,22,12,44,23.20
2019,03,22,12,45,10.80
2019,03,22,12,46,0.40
2019,03,22,12,47,21.80
2019,03,22,12,48,29.40
2019,03,22,12,49,9.40
2019,03,22,12,50,15.80
2019,03,22,12,51,17.30
2019,03,22,12,52,4.10
2019,03,22,12,53,16.20
2019,03,22,12,54,14.00
2019,03,22,12,55,9.20
2019,03,22,12,56,14.30
2019,03,22,12,57,13.50
2019,03,22,12,58,6.80
2019,03,22,12,59,4.40
2019,03,22,13,00,0.10
2019,03,22,13,01,5.20
2019,03,22,13,02,11.40
2019,03,22,13,03,0.30
2019,03,22,13,04,0.10
2019,03,22,13,05,0.10
2019,03,22,13,06,10.50
2019,03,22,13,07,17.90
2019,03,22,13,08,6.10
2019,03,22,13,09,8.90
2019,03,22,13,10,7.50
2019,03,22,13,11,8.00
2019,03,22,13,12,6.40
2019,03,22,13,13,19.20
2019,03,22,13,14,14.50
2019,03,22,13,15,19.20
2019,03,22,13,16,30.00
2019,03,22,13,17,10.60
2019,03,22,13,18,3.40
2019,03,22,13,19,3.50
2019,03,22,13,20,15.00
2019,03,22,13,21,13.00
2019,03,22,13,22,9.90
2019,03,22,13,23,15.20
2019,03,22,13,24,9.10
2019,03,22,13,25,16.20
2019,03,22,13,26,16.60
2019,03,22,13,27,9.20
2019,03,22,13,28,15.30
2019,03,22,13,29,12.70
2019,03,22,13,30,6.70
2019,03,22,13,31,13.70
2019,03,22,13,32,9.00
2019,03,22,13,33,10.60
2019,03,22,13,34,6.00
2019,03,22,13,35,10.40
2019,03,22,13,36,11.10
2019,03,22,13,37,14.00
2019,03,22,13,38,5.80
2019,03,22,13,39,2.70
2019,03,22,13,40,19.40
2019,03,22,13,41,24.50
2019,03,22,13,42,27.40
2019,03,22,13,43,17.30
2019,03,22,13,44,7.60
2019,03,22,13,45,24.30
2019,03,22,13,46,21.70
2019,03,22,13,47,13.30
2019,03,22,13,48,6.70
2019,03,22,13,49,9.30
2019,03,22,13,50,4.90
2019,03,22,13,51,10.00
2019,03,22,13,52,6.90
2019,03,22,13,53,18.20
2019,03,22,13,54,11.60
2019,03,22,13,55,11.00
2019,03,22,13,56,10.20
2019,03,22,13,57,7.00
2019,03,22,13,58,15.60
2019,03,22,13,59,10.50
2019,03,22,14,00,6.20
2019,03,22,14,01,14.80
2019,03,22,14,02,20.20
2019,03,22,14,03,19.40
2019,03,22,14,04,15.90
2019,03,22,14,05,12.10
2019,03,22,14,06,20.80
2019,03,22,14,07,6.60
2019,03,22,14,08,2.40
2019,03,22,14,09,4.70
2019,03,22,14,10,7.50
2019,03,22,14,11,3.60
2019,03,22,14,12,6.60
2019,03,22,14,13,3.90
2019,03,22,14,14,1.90
2019,03,22,14,15,8.60
2019,03,22,14,16,0.00
2019,03,22,14,17,0.10
2019,03,22,14,18,1.00
2019,03,22,14,19,4.50
2019,03,22,14,20,5.30
2019,03,22,14,21,0.00
2019,03,22,14,22,0.20
2019,03,22,14,23,0.20
2019,03,22,14,24,0.40
2019,03,22,14,25,5.80
2019,03,22,14,26,6.50
2019,03,22,14,27,0.20
2019,03,22,14,28,3.30
2019,03,22,14,29,0.10
2019,03,22,14,30,0.00
2019,03,22,14,31,0.10
2019,03,22,14,32,0.00
2019,03,22,14,33,0.00
2019,03,22,14,34,0.10
2019,03,22,14,35,0.00
2019,03,22,14,36,0.00
2019,03,22,14,37,0.00
2019,03,22,14,38,0.10
2019,03,22,14,39,0.00
2019,03,22,14,40,0.00
2019,03,22,14,41,0.10
2019,03,22,14,42,0.40
2019,03,22,14,43,0.10
2019,03,22,14,44,0.00
2019,03,22,14,45,0.00
2019,03,22,14,46,0.00
2019,03,22,14,47,0.00
2019,03,22,14,48,0.00
2019,03,22,14,49,0.00
2019,03,22,14,50,0.00
2019,03,22,14,51,0.20
2019,03,22,14,52,6.80
2019,03,22,14,53,15.30
2019,03,22,14,54,0.10
2019,03,22,14,55,0.00
2019,03,22,14,56,10.10
2019,03,22,14,57,12.90
2019,03,22,14,58,4.30
2019,03,22,14,59,6.20
2019,03,22,15,00,1.70
2019,03,22,15,01,0.10
2019,03,22,15,02,0.00
2019,03,22,15,03,0.00
2019,03,22,15,04,5.70
2019,03,22,15,05,0.80
2019,03,22,15,06,0.10
2019,03,22,15,07,0.00
2019,03,22,15,08,0.10
2019,03,22,15,09,0.00
2019,03,22,15,10,0.00
2019,03,22,15,11,0.00
2019,03,22,15,12,0.00
2019,03,22,15,13,0.00
2019,03,22,15,14,0.00
2019,03,22,15,15,0.30
2019,03,22,15,16,0.00
2019,03,22,15,17,0.00
2019,03,22,15,18,0.00
2019,03,22,15,19,0.00
2019,03,22,15,20,0.00
2019,03,22,15,21,0.10
2019,03,22,15,22,0.00
2019,03,22,15,23,0.00
2019,03,22,15,24,0.00
2019,03,22,15,25,0.00
2019,03,22,15,26,0.00
2019,03,22,15,27,0.00
2019,03,22,15,28,0.10
2019,03,22,15,29,0.00
2019,03,22,15,30,0.10
2019,03,22,15,31,0.10
2019,03,22,15,32,0.00
2019,03,22,15,33,0.10
2019,03,22,15,34,0.30
2019,03,22,15,35,0.10
2019,03,22,15,36,9.10
2019,03,22,15,37,3.20
2019,03,22,15,38,4.00
2019,03,22,15,39,10.00
2019,03,22,15,40,11.50
2019,03,22,15,41,9.40
2019,03,22,15,42,11.80
2019,03,22,15,43,5.00
2019,03,22,15,44,2.20
2019,03,22,15,45,1.20
2019,03,22,15,46,3.40
2019,03,22,15,47,5.80
2019,03,22,15,48,5.10
2019,03,22,15,49,12.70
2019,03,22,15,50,4.80
2019,03,22,15,51,10.30
2019,03,22,15,52,11.70
2019,03,22,15,53,2.20
2019,03,22,15,54,14.60
2019,03,22,15,55,14.50
2019,03,22,15,56,0.60
2019,03,22,15,57,0.00
2019,03,22,15,58,0.00
2019,03,22,15,59,0.00
2019,03,22,16,00,0.00
2019,03,22,16,01,0.00
2019,03,22,16,02,3.00
2019,03,22,16,03,6.00
2019,03,22,16,04,3.40
2019,03,22,16,05,11.10
2019,03,22,16,06,10.80
2019,03,22,16,07,3.50
2019,03,22,16,08,0.00
2019,03,22,16,09,4.10
2019,03,22,16,10,1.00
2019,03,22,16,11,0.00
2019,03,22,16,12,0.30
2019,03,22,16,13,0.00
2019,03,22,16,14,0.10
2019,03,22,16,15,0.10
2019,03,22,16,16,3.10
2019,03,22,16,17,14.50
2019,03,22,16,18,4.80
2019,03,22,16,19,5.60
2019,03,22,16,20,16.70
2019,03,22,16,21,12.60
2019,03,22,16,22,5.70
2019,03,22,16,23,6.70
2019,03,22,16,24,1.30
2019,03,22,16,25,14.20
2019,03,22,16,26,1.80
2019,03,22,16,27,7.70
2019,03,22,16,28,5.10
2019,03,22,16,29,0.00
2019,03,22,16,30,1.70
2019,03,22,16,31,3.10
2019,03,22,16,32,7.80
2019,03,22,16,33,0.10
2019,03,22,16,34,6.50
2019,03,22,16,35,6.70
2019,03,22,16,36,13.70
2019,03,22,16,37,15.40
2019,03,22,16,38,15.20
2019,03,22,16,39,5.00
2019,03,22,16,40,0.40
2019,03,22,16,41,6.90
2019,03,22,16,42,8.70
2019,03,22,16,43,12.60
2019,03,22,16,44,10.20
2019,03,22,16,45,17.00
2019,03,22,16,46,9.60
2019,03,22,16,47,7.90
2019,03,22,16,48,4.20
2019,03,22,16,49,0.10
2019,03,22,16,50,5.40
2019,03,22,16,51,1.90
2019,03,22,16,52,1.20
2019,03,22,16,53,0.00
2019,03,22,16,54,0.10
2019,03,22,16,55,0.10
2019,03,22,16,56,0.00
2019,03,22,16,57,0.00
2019,03,22,16,58,0.20
2019,03,22,16,59,7.40
2019,03,22,17,00,0.10
2019,03,22,17,01,0.10
2019,03,22,17,02,0.10
2019,03,22,17,03,0.00
2019,03,22,17,04,0.00
2019,03,22,17,05,0.30
2019,03,22,17,06,0.10
2019,03,22,17,07,7.60
2019,03,22,17,08,8.30
2019,03,22,17,09,8.90
2019,03,22,17,10,1.20
2019,03,22,17,11,2.30
2019,03,22,17,12,2.10
2019,03,22,17,13,0.00
2019,03,22,17,14,0.00
2019,03,22,17,15,0.10
2019,03,22,17,16,0.00
2019,03,22,17,17,0.00
2019,03,22,17,18,0.00
2019,03,22,17,19,0.00
2019,03,22,17,20,0.20
2019,03,22,17,21,0.00
2019,03,22,17,22,0.00
2019,03,22,17,23,0.00
2019,03,22,17,24,0.20
2019,03,22,17,25,0.20
2019,03,22,17,26,0.00
2019,03,22,17,27,0.00
2019,03,22,17,28,0.00
2019,03,22,17,29,0.00
2019,03,22,17,30,1.90
2019,03,22,17,31,7.50
2019,03,22,17,32,0.00
2019,03,22,17,33,0.00
2019,03,22,17,34,0.00
2019,03,22,17,35,3.60
2019,03,22,17,36,0.00
2019,03,22,17,37,0.00
2019,03,22,17,38,0.00
2019,03,22,17,39,0.00
2019,03,22,17,40,0.00
2019,03,22,17,41,0.50
2019,03,22,17,42,4.30
2019,03,22,17,43,0.00
2019,03,22,17,44,0.00
2019,03,22,17,45,0.00
2019,03,22,17,46,0.00
2019,03,22,17,47,0.00
2019,03,22,17,48,0.00
2019,03,22,17,49,0.00
2019,03,22,17,50,0.10
2019,03,22,17,51,0.00
2019,03,22,17,52,2.30